This is the latest recevied weather packets stored in our database for station/object KG4YZY-1. If no packets are shown the sender has not sent any weather packets the latest 10 day(s).
| Time | Temp. | Humidity | Pressure | Rain* | Wind** | Luminosity | Snow |
|---|---|---|---|---|---|---|---|
| 1777734904 | 29.44° C | 71% | 1013 hPa | 0 mm | - | - | - |
| 1777734603 | 28.89° C | 72% | 1013 hPa | 0 mm | - | - | - |
| 1777734303 | 28.33° C | 72% | 1013 hPa | 0 mm | - | - | - |
| 1777734003 | 28.33° C | 71% | 1012.8 hPa | 0 mm | - | - | - |
| 1777733705 | 28.33° C | 70% | 1012.8 hPa | 0 mm | - | - | - |
| 1777733403 | 28.33° C | 73% | 1012.5 hPa | 0 mm | - | - | - |
| 1777733103 | 27.78° C | 73% | 1012.4 hPa | 0 mm | - | - | - |
| 1777732804 | 27.78° C | 73% | 1012.5 hPa | 0 mm | - | - | - |
| 1777732504 | 27.78° C | 72% | 1012.5 hPa | 0 mm | - | - | - |
| 1777732204 | 28.33° C | 72% | 1012.5 hPa | 0 mm | - | - | - |
| 1777731904 | 27.78° C | 73% | 1012.4 hPa | 0 mm | - | - | - |
| 1777731604 | 27.78° C | 75% | 1012.4 hPa | 0 mm | - | - | - |
| 1777731303 | 27.78° C | 74% | 1012.4 hPa | 0 mm | - | - | - |
| 1777731004 | 27.22° C | 75% | 1012.5 hPa | 0 mm | - | - | - |
| 1777730704 | 27.22° C | 76% | 1012.6 hPa | 0 mm | - | - | - |
| 1777730404 | 27.22° C | 77% | 1012.6 hPa | 0 mm | - | - | - |
| 1777730104 | 26.67° C | 78% | 1012.5 hPa | 0 mm | - | - | - |
| 1777729804 | 26.67° C | 78% | 1012.6 hPa | 0 mm | - | - | - |
| 1777729504 | 26.11° C | 78% | 1012.7 hPa | 0 mm | - | - | - |
| 1777729203 | 26.11° C | 77% | 1012.6 hPa | 0 mm | - | - | - |
| 1777728904 | 26.11° C | 79% | 1012.5 hPa | 0 mm | - | - | - |
| 1777728603 | 25.56° C | 81% | 1012.4 hPa | 0 mm | - | - | - |
| 1777728303 | 25.56° C | 83% | 1012.2 hPa | 0 mm | - | - | - |
| 1777728004 | 25.56° C | 84% | 1012.2 hPa | 0 mm | - | - | - |
| 1777727703 | 25° C | 85% | 1012.1 hPa | 0 mm | - | - | - |
* Rain latest hour (hover to see other rain measurements)
** Current wind speed in m/s (hover to see current wind gust speed)